SCP
1 1 1 1 1 1 1 1 1 1 1 1 0 0 1 1 1 1 1 2 2 2 1 1 1 1 1 1 1 1 1 1 1 1 1 1 1 1 0 0 0 0 0
1 1 1 1 1 1 1 1 1 1 1 1 1 1 1 1 1 1 1 2 2 2 2 2 1 1 1 1 1 1 1 1 1 1 1 1 1 1 0 0 0 0 0
1 1 1 1 1 1 1 1 1 1 1 1 1 1 1 1 1 1 1 1 2 2 2 2 2 1 1 1 1 1 1 1 1 1 1 1 1 1 1 0 0 0 0
1 1 1 1 1 1 1 1 1 1 1 1 1 1 1 1 1 1 1 1 1 2 2 2 2 2 1 1 1 1 1 1 1 1 1 1 1 1 1 1 1 1 0
1 1 1 1 1 2 2 1 1 1 1 1 1 1 1 1 1 1 1 1 1 1 2 2 2 2 2 1 1 1 1 1 1 1 1 1 1 1 1 1 1 1 1
2 1 1 1 2 2 2 1 1 1 1 1 1 1 1 1 1 1 2 2 1 1 2 2 3 2 2 2 2 2 2 2 1 1 1 1 1 1 1 1 1 1 1
2 2 1 1 2 2 2 1 1 1 1 1 1 1 1 1 1 2 2 2 2 2 2 3 3 3 2 2 2 2 2 2 2 2 1 1 1 1 1 1 1 1 1
2 2 1 1 1 1 1 1 1 1 1 1 1 1 1 1 1 1 2 2 2 2 2 2 2 3 2 2 2 2 2 2 2 2 2 2 1 1 1 1 1 1 1
2 2 1 1 1 1 1 1 2 1 1 1 1 1 1 1 1 1 2 2 2 2 2 2 2 2 2 2 2 2 2 1 2 2 2 2 2 1 1 1 1 1 1
2 2 1 1 1 1 1 2 2 1 1 1 1 1 2 2 2 2 2 1 1 2 2 2 2 2 2 2 2 2 2 1 1 1 2 2 2 1 1 1 1 1 1
2 2 2 1 1 1 1 2 2 2 2 2 2 2 2 3 3 2 2 2 2 2 2 2 2 2 2 2 2 2 2 1 1 1 1 1 1 1 1 1 1 1 1
2 2 2 2 2 2 2 2 2 2 2 3 3 3 3 3 3 3 2 2 2 2 2 2 2 2 2 2 2 2 2 1 1 1 1 1 1 1 1 1 1 1 1
3 3 3 3 3 2 2 3 3 3 4 4 4 4 3 3 3 3 3 3 3 3 3 3 2 2 2 1 1 2 2 1 1 0 0 1 1 1 1 1 1 1 1
4 4 4 4 4 4 3 3 4 4 4 5 4 4 4 4 4 4 4 5 5 4 4 4 3 2 2 1 1 1 1 1 0 0 0 0 0 0 0 0 1 1 1
5 6 5 5 5 5 4 4 4 4 4 4 4 4 5 5 5 5 6 7 7 6 5 5 5 3 2 1 1 1 1 1 0 0 0 0 0 0 0 0 0 0 0
6 7 7 6 6 6 6 5 4 4 4 4 4 4 5 5 6 6 7 9 10 9 7 6 6 4 3 2 1 1 1 1 0 0 0 0 0 0 0 0 0 0 0
8 9 8 7 6 6 6 6 5 4 4 5 5 5 6 7 7 7 8 9 10 10 9 7 6 5 3 2 2 2 2 1 1 0 0 0 0 0 0 0 0 0 0
9 9 9 8 7 6 6 5 5 4 4 5 6 6 7 8 9 8 8 8 9 10 9 7 6 5 4 3 3 3 2 2 1 1 0 0 0 0 0 0 0 0 0
9 10 10 8 7 5 5 5 4 4 4 5 6 7 7 8 9 8 7 7 7 7 7 7 6 5 4 3 3 3 3 2 2 1 0 0 0 0 0 0 0 0 0
9 10 9 8 6 5 4 4 4 3 3 4 6 6 7 7 7 6 5 5 4 5 5 5 5 4 4 3 3 3 2 2 2 1 1 0 0 0 0 0 0 0 0
9 9 9 7 6 4 4 4 4 3 3 4 5 6 6 6 5 4 3 3 3 3 4 4 4 4 3 3 2 2 2 2 1 1 1 1 0 0 0 0 0 0 0
9 9 9 8 6 5 4 4 4 4 4 5 6 6 6 5 4 3 3 3 3 3 3 4 4 4 3 2 2 1 1 1 1 1 1 1 1 0 0 0 0 0 0
10 10 10 9 8 6 4 3 4 5 5 6 7 7 5 4 4 4 4 3 3 3 3 4 4 4 3 2 2 1 1 1 1 1 1 1 1 1 1 0 0 0 0
13 12 12 12 10 8 5 3 4 6 8 8 8 7 6 5 4 4 5 5 6 5 4 3 4 4 4 3 3 2 1 1 1 1 1 1 1 1 1 1 0 0 0
14 14 15 15 13 10 5 3 4 9 12 11 9 7 7 5 3 3 4 6 7 7 6 4 4 4 4 3 3 2 2 1 1 1 1 1 1 1 1 1 1 0 0
14 15 16 16 16 12 6 3 5 10 14 13 10 8 7 5 3 2 3 5 7 8 8 5 3 3 3 3 3 3 2 2 1 1 1 1 1 1 1 1 1 0 0
Wind_Speed
3 3 2 2 3 3 3 3 2 2 1 1 2 1 1 1 2 4 6 12 12 11 11 11 10 10 10 10 10 9 9 10 9 8 8 8 8 8 7 7 7 6 6
3 2 2 2 2 2 2 2 2 2 2 1 1 2 2 1 2 4 6 8 12 12 11 11 11 11 11 11 11 10 10 10 9 9 9 9 8 8 8 8 8 7 7
4 2 2 2 2 2 2 2 2 2 2 2 2 2 2 2 2 3 5 5 7 10 11 11 11 11 11 12 12 11 11 11 10 10 9 9 9 9 9 8 8 8 7
4 2 1 2 2 2 2 2 2 1 1 1 1 2 1 1 2 3 3 4 5 6 9 12 11 11 11 12 12 12 11 11 11 10 10 9 9 9 9 9 8 8 8
3 3 1 1 2 2 2 3 2 2 2 2 2 2 2 2 2 4 3 4 4 5 6 9 12 11 12 12 12 12 12 12 11 11 10 10 10 9 9 9 9 8 8
4 3 2 3 2 1 1 0 1 1 1 2 3 2 2 2 3 2 3 3 3 5 6 6 7 8 11 11 11 12 12 12 12 12 11 11 11 10 10 10 9 9 9
3 2 1 2 2 1 1 2 2 2 2 2 1 1 2 3 3 3 3 2 3 3 4 6 6 5 5 10 11 11 12 12 12 12 12 11 11 10 10 9 9 9 9
3 4 2 2 2 2 2 2 2 1 2 2 2 1 2 2 1 3 3 4 4 3 4 6 5 5 5 5 7 11 11 11 12 12 11 11 10 10 10 10 10 10 10
4 3 3 3 2 2 2 3 3 4 3 2 2 2 1 1 1 2 3 3 3 3 3 3 5 5 6 4 5 9 10 9 9 10 9 9 9 9 10 10 10 11 11
4 3 3 3 2 1 2 3 3 3 3 3 2 2 2 1 1 1 2 1 2 3 3 3 3 3 4 4 5 8 9 8 8 8 9 9 9 9 9 9 10 10 9
4 4 3 3 2 2 2 2 1 2 2 3 2 2 2 2 3 2 2 2 2 1 2 2 2 2 3 4 4 6 9 8 7 7 6 6 7 8 8 9 10 10 9
3 4 4 3 2 2 2 2 2 3 3 3 2 2 2 2 2 2 3 3 2 2 2 1 1 1 2 3 5 8 9 7 6 5 4 4 4 5 6 7 8 8 8
4 4 4 3 3 2 2 2 2 2 3 3 3 2 2 2 2 2 2 2 2 1 1 1 1 2 2 2 3 8 8 8 6 5 4 3 2 2 3 5 5 6 6
3 5 4 4 3 3 3 2 2 3 2 3 3 3 3 3 2 2 2 2 2 2 1 1 0 1 2 3 4 6 6 8 7 5 4 3 2 1 1 2 2 3 3
3 5 5 4 4 3 3 2 2 3 2 2 3 3 2 2 2 2 2 2 2 2 2 2 1 2 2 3 5 4 5 7 7 5 4 4 3 2 1 1 2 1 1
2 3 4 4 4 4 3 3 3 2 2 2 2 2 2 2 2 1 2 2 2 2 1 1 1 2 3 4 5 4 5 8 7 6 5 4 4 3 2 2 2 2 2
3 4 4 4 4 3 4 3 3 3 3 3 2 2 2 2 2 2 1 1 1 1 1 1 1 2 3 3 3 3 4 4 4 6 5 5 4 4 3 3 3 4 4
4 4 4 4 4 4 3 3 3 3 3 2 2 2 2 2 2 1 2 2 1 1 2 2 1 2 2 3 3 3 2 3 4 6 6 6 5 5 4 4 5 4 5
4 4 4 4 3 3 3 3 3 3 2 2 2 2 2 1 2 1 2 2 1 1 1 2 2 2 2 3 3 2 3 2 3 5 7 6 5 5 5 5 5 5 4
4 4 4 3 3 3 3 3 3 3 2 2 2 2 2 2 2 2 2 1 1 1 1 1 2 2 2 3 3 2 2 2 2 3 4 5 6 6 5 5 5 6 5
5 4 3 3 3 3 3 3 3 3 3 3 2 3 3 2 1 1 1 1 1 1 1 1 1 2 2 3 3 2 2 2 2 2 3 3 4 3 4 5 6 6 6
4 4 4 3 3 3 1 1 1 1 2 3 3 3 3 3 3 3 2 1 0 1 1 1 1 2 2 2 2 2 2 2 2 2 3 3 3 4 4 4 6 8 8
4 4 4 4 3 3 3 2 1 2 2 2 3 3 4 2 4 3 3 4 3 2 2 1 1 1 1 2 3 3 2 2 1 2 2 2 2 2 3 5 10 10 9
4 4 4 3 3 3 4 3 2 3 3 3 3 3 3 1 2 2 3 3 3 3 3 3 1 1 0 2 3 3 3 2 1 1 2 2 2 2 3 3 9 11 10
3 4 3 3 3 3 5 4 3 2 2 3 3 3 3 2 3 3 2 2 2 2 2 3 2 2 2 2 3 1 2 2 2 2 2 1 1 1 2 3 6 10 10
3 3 3 3 3 3 5 5 4 3 3 3 2 2 2 2 4 4 3 3 3 2 2 2 2 2 2 3 4 3 2 2 2 1 2 1 1 1 1 2 4 5 6
Wind_Direction
134 134 155 172 174 168 167 185 202 178 171 212 232 225 218 197 133 133 148 173 175 177 180 184 189 191 193 193 194 198 198 201 199 203 203 202 202 199 200 202 203 204 202
122 134 154 166 165 165 164 177 188 171 191 218 238 246 241 211 167 148 157 175 182 185 189 191 195 198 199 200 199 202 205 207 204 206 208 208 208 211 212 211 212 213 214
139 160 169 166 160 176 164 171 199 179 190 200 218 232 235 221 201 175 164 170 182 191 194 197 199 202 203 204 205 206 208 210 210 208 207 209 212 217 217 218 218 217 218
152 172 176 173 173 178 169 180 195 194 205 214 220 240 241 200 209 199 187 182 176 182 194 200 201 203 205 207 208 208 209 209 211 211 211 211 216 220 220 220 223 222 222
158 175 181 163 189 196 191 208 161 196 209 220 225 220 226 213 216 222 206 197 183 172 176 193 201 202 206 208 209 210 211 210 210 212 214 216 219 222 221 220 221 224 224
175 183 185 183 204 190 186 176 153 216 223 238 254 239 241 216 221 217 217 211 189 185 182 178 185 202 209 209 209 210 211 213 213 215 218 219 219 221 224 225 224 227 227
181 182 221 173 198 189 195 202 184 208 232 235 255 279 264 230 214 205 212 215 201 204 185 175 182 186 195 208 212 212 214 217 215 216 218 220 223 221 218 221 223 225 228
190 196 191 203 195 181 209 224 201 215 242 215 202 225 270 275 262 219 195 206 209 206 201 194 184 182 187 184 201 210 215 217 219 219 218 218 219 219 220 222 222 224 228
198 202 181 213 200 196 199 214 208 219 233 242 222 205 224 242 286 277 221 213 196 194 205 195 194 190 195 183 184 198 206 212 218 220 220 219 220 221 224 224 226 228 229
201 191 191 200 215 216 196 222 209 219 224 244 246 231 227 217 208 288 303 284 225 212 215 219 200 187 189 174 165 172 188 198 210 218 222 221 223 223 223 225 226 228 229
201 191 183 190 195 216 215 226 250 230 236 243 247 239 240 230 219 219 250 267 273 252 229 216 198 179 171 163 159 165 177 187 197 206 215 220 225 225 223 226 229 231 230
189 189 183 183 192 216 216 215 227 217 240 253 258 252 232 225 221 223 237 241 241 245 230 204 182 159 163 147 159 157 161 164 173 183 196 213 225 227 227 229 231 231 232
183 181 188 176 192 208 216 217 215 232 234 247 244 254 258 246 238 230 234 244 247 249 241 221 166 164 156 133 136 144 147 149 154 159 166 178 199 218 230 233 231 234 233
181 165 177 179 191 206 222 212 228 226 225 237 245 238 254 256 242 231 232 238 254 248 211 211 157 134 120 125 130 141 140 145 148 148 150 152 149 163 200 215 214 222 219
190 166 179 181 187 199 224 224 222 245 239 240 253 249 255 258 249 239 240 230 222 249 240 199 181 134 122 109 131 138 133 141 142 142 145 145 146 152 169 176 181 178 171
198 170 181 189 194 196 208 227 230 232 235 232 232 236 257 280 288 262 247 245 223 229 244 184 162 127 120 124 134 130 127 136 140 141 144 148 151 150 151 146 139 137 136
193 189 192 198 204 205 205 211 229 224 224 232 245 230 232 245 279 289 286 268 251 209 221 183 113 113 108 111 126 130 138 141 141 148 151 152 156 157 148 140 129 121 120
200 193 196 200 209 210 206 213 237 237 228 225 231 255 261 248 238 269 292 282 268 208 189 191 158 134 134 145 145 155 157 150 144 153 155 153 154 153 149 143 140 138 134
203 202 198 202 215 214 205 214 224 236 238 231 225 236 250 256 267 263 266 284 292 271 187 186 180 152 149 159 154 170 173 158 164 158 160 162 160 156 153 151 149 146 142
202 204 205 208 210 217 223 222 217 224 233 229 223 228 235 227 237 250 252 252 272 287 241 199 185 161 151 159 168 185 186 175 181 170 160 164 166 167 165 161 158 153 146
201 195 203 204 207 213 227 224 223 221 220 229 226 226 221 196 177 205 267 288 272 253 242 210 191 158 159 165 189 189 184 174 186 179 165 175 170 176 181 185 179 169 159
198 191 197 198 209 219 181 182 221 256 242 241 240 245 225 190 179 181 180 176 241 245 241 231 211 190 179 173 167 181 177 183 195 175 181 199 185 184 182 181 178 173 170
194 195 200 198 195 168 144 151 187 240 242 248 248 247 258 223 171 184 187 204 213 205 197 215 240 237 193 171 174 193 200 203 206 175 180 211 193 182 174 166 168 172 175
193 196 202 195 187 178 168 166 183 225 237 238 238 235 240 218 204 192 195 203 207 197 203 205 196 232 183 161 184 198 198 195 220 211 180 203 191 188 153 147 172 175 179
197 199 193 187 188 172 166 169 168 224 231 243 247 239 228 206 192 184 205 218 213 188 171 144 139 135 117 139 156 174 197 197 218 200 179 198 189 189 165 162 179 185 186
201 200 194 187 189 179 173 179 184 217 225 226 228 226 215 200 173 177 203 219 225 222 185 158 153 175 184 180 183 199 210 213 231 192 172 191 190 178 212 173 168 178 191